Temp_Advection
nan nan nan nan nan nan nan nan nan nan nan nan nan nan nan nan nan nan nan nan nan nan nan nan nan nan nan nan nan nan nan nan nan nan nan nan nan nan nan nan nan nan nan
nan -0 -0 -0 0 0 -0 0 0 0 0 0 0 0 0 0 0 -0 -0 0 0 0 0 -0 0 0 0 0 0 0 0 0 -0 -0 -0 0 0 0 -0 -0 0 -0 nan
nan -0 -0 -0 -0 -0 0 0 0 0 0 0 -0 -0 0 -0 -0 -0 -0 -0 -0 -0 -0 0 0 -0 -0 -0 0 0 0 0 0 -0 -0 -0 0 -0 0 -0 -0 -0 nan
nan -0 -0 -0 -0 -0 0 0 0 0 0 0 0 -0 -0 -0 -0 -0 0 0 0 0 0 0 0 0 0 0 0 0 0 -0 0 -0 -0 0 0 0 0 -0 -0 -0 nan
nan -0 -0 -0 -0 -0 0 -0 0 0 0 0 0 -0 -0 -0 -0 -0 0 0 0 0 0 0 0 0 0 0 0 0 0 0 1 0 -0 0 0 0 -0 -0 -0 0 nan
nan -0 -0 -0 -0 -0 -0 -0 0 0 0 -0 -0 -0 -0 -0 -0 -0 0 0 0 0 0 0 0 0 0 0 0 0 0 0 0 0 0 0 0 0 -0 -1 -0 0 nan
nan 0 -0 -0 0 -0 -0 -0 0 0 -0 -0 -0 -0 -0 -0 -0 0 0 0 0 0 0 -0 -0 -0 -0 -0 0 0 0 0 0 0 0 0 0 0 0 -0 -1 -0 nan
nan -0 -0 0 0 -0 -0 -0 -0 0 -0 0 0 -0 -0 -0 -0 -0 -0 0 0 0 -0 -0 0 0 0 0 0 0 0 0 -0 -0 0 0 0 0 0 -0 -0 -0 nan
nan -0 0 0 0 -0 -0 -0 -0 -0 -0 -0 0 0 0 0 -0 -0 -0 -0 0 0 0 0 0 0 0 0 -0 -0 -0 -0 -0 -0 -0 -0 -0 -0 0 0 -0 -1 nan
nan -0 0 0 0 -0 0 0 0 -0 0 -0 0 0 0 -0 -0 -0 -0 0 0 0 0 -0 -0 -0 -0 -0 -0 -0 -0 -0 -0 -0 -0 -0 -0 -0 -0 0 0 -1 nan
nan -0 0 0 -0 0 0 0 0 0 0 -0 -0 0 0 -0 -0 0 -0 -0 -0 -0 -0 -0 -0 -0 -0 -0 -0 -0 -1 -1 -1 -1 -1 -1 -0 -0 -0 -1 -0 -0 nan
nan 0 0 0 0 0 0 0 -0 0 0 0 0 0 0 0 -0 -0 -0 -0 -0 -0 -0 -0 -0 -0 -0 -0 -0 -0 -0 -1 -1 -1 -1 -1 -1 -0 -0 -0 -0 -0 nan
nan 0 0 0 0 0 0 0 0 0 0 0 0 0 -0 -0 -0 -0 -0 -0 -0 -0 -0 -0 -0 -0 -0 -0 -0 0 -0 0 -0 -0 -0 -0 -0 -0 -0 -0 0 0 nan
nan 0 0 0 1 1 0 0 0 0 0 0 0 0 0 0 0 -0 -0 -0 -0 -0 -0 -0 0 -0 -0 -0 -0 0 0 -0 0 0 -0 0 -0 -0 -0 -0 -0 0 nan
nan 0 0 0 0 0 0 0 1 0 0 0 0 0 -0 0 0 0 -0 -0 -0 -0 0 -0 -0 0 0 0 -0 -0 0 0 -0 -0 -0 -0 -0 -0 -0 -0 -0 -0 nan
nan 1 1 1 0 0 0 1 0 0 0 0 0 0 0 0 0 0 -0 -0 -0 0 0 0 -0 -0 -0 -0 -0 -0 0 0 0 -0 -0 -0 -0 -0 -0 -0 -0 -0 nan
nan 1 1 0 1 1 1 1 0 0 0 0 0 0 0 0 0 0 -0 -0 0 0 -0 -0 -0 -0 -0 -0 -0 -0 -0 -0 -0 -0 -0 -0 -0 -0 -0 -0 -0 0 nan
nan 0 0 1 1 1 0 0 0 0 0 0 0 0 0 0 0 -0 -0 -0 -0 0 -0 -0 -0 -0 -0 -0 -0 -0 -0 -0 -0 -0 -0 -0 -0 -0 -0 -0 -0 -0 nan
nan 0 0 1 1 1 0 0 0 0 0 0 0 0 -0 -0 0 0 -0 -0 -0 -0 -0 -0 -0 -0 -1 -1 -1 -0 -0 -0 -0 -0 -0 -0 -0 -0 -0 -0 -0 -0 nan
nan 1 1 1 1 0 0 0 0 -0 0 0 -0 -0 -0 -0 -0 -0 -0 -0 -0 -0 -0 -0 -1 -0 -0 -1 -1 -0 -0 -0 -0 -0 -0 -0 -0 -0 -0 -0 -1 -1 nan
nan 1 1 1 1 0 0 -0 -0 -0 -0 -0 0 0 -0 -0 -0 -0 -0 -0 -1 -1 -1 -1 -1 -1 -0 -1 -1 -1 -1 -1 -0 -1 -1 -1 -1 -1 -1 -1 -1 -1 nan
nan 1 1 0 0 0 -0 -0 -0 -0 -0 -0 -0 -0 -0 -0 -0 -0 -1 -1 -1 -1 -0 -0 -0 -1 -0 -0 -1 -2 -1 -2 -1 -1 -1 -1 -1 -1 -1 -2 -2 -1 nan
nan 0 0 0 0 0 -0 -0 -0 -0 -0 -0 -0 -0 -0 -0 -0 -0 -0 -0 -0 -0 -0 -0 -0 -0 -1 -0 0 -0 -0 -1 -4 -1 -2 -0 -1 -1 -2 -1 -2 -1 nan
nan 0 0 -0 -0 0 0 -0 -0 -0 -0 -0 -0 -0 -0 -0 -0 -0 -0 -0 -0 -0 -0 -0 -0 -0 -0 -1 -1 -0 0 -0 -0 -2 -1 -2 -1 -1 -1 -1 -1 -1 nan
nan 0 0 -0 0 0 0 0 0 0 0 0 0 0 -0 -0 -0 -0 -0 -0 -0 -0 -0 -0 -0 -0 -0 -0 -0 -1 -0 -0 -0 -0 -1 -1 -1 -1 -1 -1 -1 -1 nan
nan nan nan nan nan nan nan nan nan nan nan nan nan nan nan nan nan nan nan nan nan nan nan nan nan nan nan nan nan nan nan nan nan nan nan nan nan nan nan nan nan nan nan
Wind_Speed
3 3 6 8 13 10 8 4 2 4 6 8 7 2 7 5 5 3 4 2 6 8 7 5 4 3 3 5 5 4 9 12 17 15 11 7 3 5 4 5 5 5 3
1 5 7 11 12 10 8 4 3 5 6 6 5 2 9 6 3 3 6 9 10 6 9 3 2 2 6 5 5 4 10 12 13 14 4 0 3 3 3 4 6 8 3
6 7 9 11 12 10 9 7 6 5 4 5 4 5 3 4 1 5 5 1 3 6 11 7 5 3 7 7 8 8 8 12 15 7 1 3 3 4 4 6 6 10 7
6 8 8 11 12 8 9 8 3 2 3 3 1 3 3 3 3 1 3 2 3 8 10 9 4 5 8 10 11 9 10 9 9 6 2 5 5 6 4 10 8 10 10
4 8 7 8 10 10 10 4 2 2 3 4 0 8 6 4 3 2 3 4 4 10 11 11 7 5 4 6 6 8 9 13 14 8 8 8 6 10 12 12 11 11 13
4 4 3 4 9 9 7 4 2 2 2 4 3 6 8 6 3 3 3 2 6 13 12 10 10 9 8 8 8 8 8 10 12 12 10 11 13 10 14 18 15 13 15
6 5 4 5 7 9 6 4 2 2 1 3 3 4 7 8 5 5 4 4 10 13 9 9 9 9 8 9 9 9 10 10 11 12 12 11 13 15 15 17 18 17 16
6 6 6 8 8 8 7 5 3 4 0 0 4 1 4 5 4 2 4 6 9 8 8 9 10 10 9 9 9 10 11 11 11 11 11 12 11 13 15 16 16 17 19
11 9 8 9 9 9 6 4 4 4 3 3 2 2 2 4 5 4 4 6 6 8 9 10 9 9 10 10 11 12 12 12 13 14 13 11 10 11 13 14 17 17 19
12 10 8 8 8 7 5 5 3 3 5 5 2 2 1 2 3 2 2 2 5 8 9 10 11 12 12 13 14 14 13 15 16 16 14 14 16 16 18 18 19 20 20
13 12 10 9 8 7 6 6 3 2 3 3 2 1 3 4 3 0 2 5 8 9 10 12 11 12 13 14 15 16 17 19 20 20 21 21 22 23 23 24 25 25 26
9 14 14 12 8 7 7 6 4 4 2 4 2 2 1 1 2 3 5 5 7 10 10 13 14 15 17 18 19 21 22 22 23 23 24 24 24 24 24 25 26 26 26
7 10 17 16 12 10 10 9 8 6 4 7 3 1 1 2 1 3 5 8 10 13 14 15 16 17 18 19 20 21 22 24 24 25 26 26 27 27 28 27 28 28 30
12 11 12 17 18 15 15 11 9 6 6 5 3 6 5 4 2 4 5 7 9 11 13 14 15 16 16 16 15 17 18 19 22 22 22 23 24 26 27 28 28 27 28
12 13 14 16 20 19 16 12 12 11 9 9 8 7 7 5 5 4 5 5 8 12 13 13 12 12 14 14 15 15 16 18 21 22 22 23 23 24 26 26 27 25 26
14 16 16 17 17 19 19 14 15 13 10 10 9 7 6 6 5 3 5 8 9 11 10 9 11 12 13 16 17 18 18 18 18 21 26 23 23 24 24 25 28 28 27
18 18 17 14 14 15 16 15 13 16 13 11 8 6 4 3 5 6 6 7 7 3 7 9 12 15 17 17 19 18 19 19 21 22 23 18 15 16 18 16 17 20 21
20 19 17 17 15 14 11 13 12 12 14 12 11 8 6 6 7 7 3 1 4 8 10 13 16 19 19 21 21 21 21 19 17 13 13 12 13 17 19 19 17 18 18
20 19 22 21 19 16 14 16 16 13 12 11 10 9 8 6 3 1 3 6 8 12 14 16 17 18 19 20 21 21 19 17 11 15 15 16 18 20 21 20 20 20 20
14 15 19 26 23 20 19 21 17 14 12 11 9 10 10 7 5 6 9 11 14 16 16 17 17 17 18 20 21 21 19 11 17 11 15 21 19 22 21 20 21 22 24
14 18 20 25 24 22 20 20 17 15 13 13 13 12 8 6 7 10 13 16 18 19 17 18 18 19 19 22 25 27 21 21 3 17 17 22 22 18 20 23 27 31 30
19 20 23 23 22 19 17 16 15 17 18 15 12 9 7 7 10 14 19 22 23 20 17 18 19 21 20 20 23 22 15 21 11 29 14 19 16 22 27 27 29 27 31
23 23 23 23 22 18 15 19 21 19 17 14 11 7 5 7 11 16 20 22 23 22 19 18 19 20 22 20 18 14 10 10 40 13 32 10 30 22 32 29 27 29 23
26 23 23 22 18 15 15 17 16 15 15 12 8 4 3 6 11 15 18 21 21 21 19 18 18 18 20 22 21 18 17 24 29 24 16 42 22 34 32 31 33 27 30
25 25 26 25 23 21 18 15 15 15 12 10 6 3 1 5 10 15 18 21 21 20 18 18 18 18 19 20 19 24 26 30 31 32 36 29 34 32 34 30 32 37 32
27 26 24 22 21 19 17 16 14 11 11 9 6 2 3 8 11 14 18 20 20 18 18 18 19 20 21 21 22 23 25 30 33 34 40 41 37 34 30 33 35 31 29
Wind_Direction
185 159 163 160 171 170 156 170 220 292 318 331 323 311 153 164 175 217 271 263 307 337 27 88 107 117 146 199 220 266 286 276 282 294 292 301 234 238 230 230 192 219 232
186 149 154 156 158 148 150 170 207 289 321 323 331 168 169 153 118 249 278 283 289 330 356 181 161 211 197 213 228 270 281 300 307 317 317 195 209 247 244 273 197 188 196
128 139 143 148 147 152 163 190 243 294 311 339 16 100 121 171 289 324 317 336 298 3 3 358 262 251 225 231 239 250 272 289 302 326 357 188 218 251 272 281 257 235 227
129 134 140 142 149 157 167 192 258 297 321 344 1 130 130 134 173 126 11 311 342 350 358 6 335 279 256 258 248 252 256 286 311 319 286 254 274 277 261 284 275 237 230
145 144 120 148 154 163 181 206 235 346 6 0 7 147 149 168 179 202 297 334 318 336 340 1 6 358 340 307 300 295 276 290 312 315 297 276 285 277 274 274 270 251 234
173 139 145 174 172 169 182 207 216 342 3 39 66 157 164 193 206 229 251 276 317 346 341 3 9 358 346 337 328 329 323 317 322 310 303 291 291 277 281 287 287 272 260
174 187 209 209 197 187 194 202 212 263 358 49 43 176 192 183 197 204 233 266 308 331 2 7 8 359 349 343 345 338 340 335 330 327 315 301 286 290 297 289 288 286 274
210 201 223 206 202 202 197 207 192 202 110 110 31 220 240 217 219 269 263 285 301 323 346 352 354 351 345 339 338 337 339 336 334 333 327 319 303 292 290 290 292 286 280
226 226 208 201 199 203 200 196 181 193 211 261 7 2 279 242 229 239 256 285 308 330 333 334 334 334 333 332 330 329 325 322 324 321 316 312 311 306 302 298 294 294 287
226 229 206 200 201 204 203 188 197 239 251 263 324 358 15 187 192 217 270 311 310 317 325 328 327 329 328 328 324 319 313 308 319 319 315 310 309 304 302 297 291 294 294
217 230 222 209 195 192 200 204 213 248 253 262 275 95 116 137 175 129 15 340 336 333 336 335 335 338 341 344 341 335 328 327 322 317 315 315 317 313 310 302 297 294 293
230 226 226 227 217 211 214 210 236 234 235 185 133 176 129 141 26 348 345 335 345 343 344 345 343 347 346 343 339 337 332 327 322 322 320 323 322 318 313 310 308 305 302
265 229 217 220 226 228 225 228 226 198 192 202 209 247 313 29 308 352 347 350 352 346 345 345 342 340 332 327 323 323 322 315 317 316 316 319 316 315 313 312 310 309 307
238 241 223 213 219 222 224 219 219 208 202 208 217 237 244 244 297 317 333 344 336 327 328 322 321 322 324 325 320 311 311 309 306 304 307 308 307 308 308 305 300 300 300
242 239 227 218 216 221 225 220 210 199 204 209 210 219 232 239 237 258 281 291 305 311 305 305 302 304 305 313 311 317 319 323 323 318 310 309 311 309 308 308 302 298 297
227 231 226 222 218 217 225 221 201 198 185 198 204 227 242 240 239 264 279 286 289 288 282 296 305 315 318 316 315 314 308 302 304 302 311 311 311 311 314 311 304 296 296
206 204 208 213 218 216 214 217 198 201 189 198 199 167 185 197 217 234 251 261 276 277 290 305 309 313 315 313 309 309 306 302 301 307 308 316 328 326 317 325 320 317 313
195 194 202 212 210 213 200 191 190 194 202 204 196 179 199 224 196 209 253 301 323 312 319 317 316 319 319 317 318 319 318 324 321 323 330 325 319 315 315 312 315 312 314
221 214 206 203 203 197 178 170 171 179 181 178 173 185 176 166 158 80 14 356 336 326 324 322 324 328 330 329 331 331 335 338 328 321 314 313 312 315 317 313 308 306 307
205 192 182 184 191 189 180 170 178 177 170 178 180 151 132 121 82 26 5 351 342 338 333 332 337 342 343 337 336 335 343 351 323 314 322 316 322 319 316 314 312 306 298
175 167 162 169 177 185 182 182 177 171 171 156 135 123 113 81 45 18 7 1 357 352 349 345 348 348 353 346 343 342 345 345 318 329 330 336 323 321 310 301 300 301 303
156 156 158 164 174 178 174 168 171 156 141 133 128 120 94 58 32 19 12 7 1 356 350 349 351 350 351 355 351 349 342 351 309 338 321 328 316 315 315 318 316 317 314
158 159 158 158 165 162 161 152 146 143 140 137 131 116 84 40 19 12 8 5 358 352 349 348 347 348 343 344 348 357 339 323 325 322 330 311 317 318 322 319 324 313 313
163 165 162 164 163 159 155 146 145 146 143 139 135 120 69 21 5 4 1 358 353 347 342 343 341 340 336 335 334 335 320 315 321 317 310 319 323 317 323 318 318 312 302
160 161 158 154 151 149 152 152 149 148 147 146 151 156 15 5 1 357 354 350 344 339 336 333 332 334 334 330 328 323 320 318 319 314 310 309 314 312 316 310 309 308 313
163 161 160 157 153 157 161 161 164 163 160 167 170 202 343 351 350 348 346 343 339 336 333 332 331 330 328 325 322 317 313 313 315 312 309 309 308 308 307 304 307 307 315
Height
1509 1508 1509 1510 1512 1514 1515 1516 1516 1516 1515 1514 1513 1513 1514 1514 1515 1516 1516 1516 1515 1514 1512 1513 1512 1513 1513 1513 1513 1514 1514 1513 1511 1510 1508 1507 1507 1508 1508 1509 1508 1508 1509
1507 1507 1508 1509 1510 1513 1514 1515 1516 1515 1514 1513 1512 1512 1513 1514 1515 1516 1516 1516 1515 1514 1512 1512 1512 1512 1512 1512 1512 1513 1512 1510 1508 1507 1506 1506 1506 1507 1507 1507 1507 1507 1509
1506 1507 1507 1508 1510 1511 1513 1513 1513 1513 1513 1512 1512 1512 1513 1514 1514 1515 1515 1515 1514 1513 1512 1511 1510 1511 1511 1511 1511 1511 1511 1509 1507 1506 1505 1505 1505 1504 1505 1505 1506 1506 1507
1506 1506 1507 1507 1509 1510 1511 1512 1512 1512 1512 1511 1511 1512 1513 1514 1514 1515 1515 1514 1513 1513 1512 1510 1510 1509 1509 1509 1509 1509 1508 1507 1505 1505 1504 1504 1504 1503 1503 1503 1504 1504 1505
1505 1506 1506 1507 1508 1509 1510 1511 1511 1510 1510 1510 1510 1511 1512 1513 1514 1514 1514 1514 1513 1512 1511 1510 1509 1508 1508 1507 1507 1506 1506 1505 1504 1504 1503 1503 1503 1502 1501 1502 1502 1502 1503
1505 1506 1506 1508 1508 1508 1509 1510 1510 1510 1509 1509 1509 1509 1510 1512 1513 1513 1513 1514 1513 1512 1511 1510 1509 1508 1507 1506 1506 1505 1504 1504 1503 1503 1503 1502 1501 1501 1500 1500 1500 1501 1501
1504 1506 1507 1507 1507 1508 1509 1509 1509 1510 1509 1509 1509 1509 1509 1510 1511 1511 1513 1513 1512 1512 1511 1509 1508 1508 1507 1506 1505 1504 1504 1504 1503 1502 1501 1501 1499 1499 1499 1498 1498 1498 1498
1504 1505 1506 1506 1507 1508 1508 1507 1507 1509 1509 1508 1509 1509 1509 1510 1511 1511 1511 1512 1512 1511 1510 1509 1509 1508 1507 1505 1504 1504 1503 1502 1502 1501 1500 1499 1498 1497 1497 1496 1495 1495 1494
1503 1504 1505 1505 1506 1507 1507 1506 1507 1508 1508 1509 1508 1508 1508 1509 1510 1510 1511 1511 1511 1510 1510 1509 1508 1507 1506 1505 1504 1503 1502 1501 1500 1500 1499 1498 1497 1496 1495 1494 1493 1492 1491
1502 1502 1504 1504 1505 1506 1506 1506 1506 1507 1508 1508 1508 1508 1507 1508 1509 1509 1510 1510 1510 1510 1509 1508 1507 1506 1505 1504 1503 1501 1500 1499 1498 1497 1497 1496 1495 1493 1492 1491 1490 1489 1488
1499 1500 1501 1502 1504 1503 1504 1505 1505 1506 1507 1508 1508 1507 1507 1507 1508 1509 1509 1509 1508 1508 1508 1507 1506 1505 1504 1503 1502 1500 1499 1497 1495 1495 1493 1492 1491 1490 1488 1488 1487 1486 1484
1497 1497 1498 1500 1501 1501 1502 1503 1504 1504 1506 1507 1507 1507 1507 1507 1507 1508 1508 1508 1508 1507 1507 1506 1505 1503 1501 1500 1499 1497 1496 1494 1493 1491 1489 1488 1487 1486 1484 1483 1482 1481 1480
1493 1495 1496 1497 1499 1499 1500 1501 1502 1504 1505 1506 1506 1506 1506 1507 1508 1508 1508 1507 1506 1506 1504 1503 1502 1501 1499 1498 1496 1494 1493 1492 1489 1487 1486 1484 1483 1481 1480 1479 1478 1476 1474
1490 1491 1493 1495 1497 1498 1498 1499 1499 1501 1502 1504 1505 1505 1506 1506 1506 1506 1506 1505 1504 1504 1503 1502 1501 1499 1498 1496 1494 1492 1490 1488 1486 1484 1483 1481 1479 1478 1476 1474 1473 1471 1470
1487 1488 1490 1492 1494 1495 1495 1497 1498 1499 1501 1503 1503 1504 1505 1505 1505 1505 1505 1504 1503 1502 1501 1499 1497 1496 1494 1491 1490 1488 1486 1484 1482 1481 1479 1477 1475 1473 1471 1469 1468 1465 1464
1484 1485 1487 1489 1491 1491 1492 1495 1497 1497 1499 1500 1502 1503 1503 1503 1504 1504 1504 1503 1501 1499 1497 1496 1494 1492 1490 1487 1486 1483 1481 1479 1477 1476 1473 1471 1468 1467 1466 1464 1462 1460 1459
1481 1483 1484 1486 1487 1488 1490 1492 1495 1496 1497 1498 1500 1500 1501 1501 1501 1501 1500 1499 1498 1496 1495 1494 1492 1489 1487 1483 1480 1478 1476 1474 1472 1470 1467 1465 1463 1462 1461 1459 1458 1455 1454
1478 1480 1482 1483 1483 1485 1488 1491 1492 1494 1495 1496 1497 1499 1499 1499 1498 1498 1498 1498 1497 1495 1493 1491 1488 1485 1482 1478 1474 1472 1470 1469 1467 1464 1463 1461 1460 1458 1457 1455 1454 1452 1451
1475 1477 1479 1480 1481 1484 1486 1488 1489 1492 1493 1495 1497 1497 1497 1497 1498 1498 1498 1497 1495 1493 1490 1487 1484 1481 1477 1473 1470 1468 1465 1464 1462 1460 1459 1458 1457 1455 1453 1451 1448 1447 1445
1473 1473 1475 1477 1480 1481 1483 1486 1489 1490 1492 1494 1495 1496 1497 1498 1498 1497 1497 1495 1492 1490 1487 1483 1480 1478 1474 1470 1467 1464 1461 1460 1458 1456 1455 1454 1452 1450 1447 1445 1443 1441 1440
1471 1471 1473 1475 1477 1479 1482 1484 1487 1489 1492 1494 1495 1496 1497 1497 1497 1496 1494 1492 1490 1486 1483 1480 1477 1474 1471 1467 1462 1458 1456 1456 1454 1454 1451 1450 1447 1446 1444 1441 1439 1436 1433
1470 1471 1473 1475 1477 1480 1482 1485 1487 1490 1493 1495 1496 1496 1496 1496 1495 1494 1492 1490 1487 1485 1482 1479 1475 1472 1470 1467 1463 1457 1453 1451 1451 1449 1447 1445 1443 1442 1438 1436 1433 1430 1428
1470 1471 1473 1475 1477 1479 1482 1484 1487 1490 1492 1493 1495 1495 1495 1494 1493 1492 1490 1488 1485 1482 1479 1477 1474 1471 1468 1467 1466 1465 1459 1455 1447 1444 1442 1440 1439 1435 1432 1430 1427 1425 1422
1469 1472 1475 1477 1478 1479 1482 1484 1487 1488 1490 1492 1494 1494 1494 1493 1491 1490 1488 1485 1483 1480 1478 1475 1473 1471 1469 1466 1464 1463 1463 1460 1453 1438 1438 1434 1433 1429 1426 1424 1421 1419 1417
1468 1471 1474 1476 1478 1480 1483 1485 1487 1489 1490 1491 1492 1492 1492 1491 1489 1487 1485 1483 1480 1478 1476 1474 1472 1469 1467 1465 1463 1459 1457 1453 1450 1444 1428 1428 1427 1424 1421 1419 1416 1412 1409
1467 1470 1473 1475 1477 1480 1483 1485 1487 1488 1489 1490 1490 1490 1489 1488 1487 1486 1484 1481 1478 1475 1473 1471 1470 1468 1465 1462 1460 1457 1454 1450 1445 1440 1431 1422 1418 1416 1415 1412 1408 1405 1402